Terminal Aerodrome Forecast
Issued by NWS

Home | Current Version | Previous Version | Text Only | Print | Product List | Glossary On
Versions: 1 2 3 4 5 6 7 8 9 10 11 12 13 14 15 16 17 18 19
000
FTUS43 KAPX 011723
TAFMBL
TAF
KMBL 011723Z 0118/0218 28009G15KT P6SM FEW060
     FM020100 VRB03KT P6SM SKC
     FM020800 21005KT P6SM -SHRA BKN080
     FM021300 24010G17KT 5SM -TSRA BKN040CB
      AMD LTD TO CLD VIS AND WIND=

USA.gov is the U.S. government's official web portal to all federal, state and local government web resources and services.